Theta_e
304 297 295 294 297 299 301 301 300 300 300 299 298 297 295 295 296 299 300 302 303 299 298 297 297 297 298 299 301 302 303 303 303 302 303 304 304 305 306 307 308 308 307 312 313 312 312 311 311 312 311 310 309 309 308 308 309 311 311 312 311 313 313 313 314 315 316 315 316 316 316 315 316 315 316 316 317 316 315 315 313 311 310 310 309 308
301 296 296 299 300 301 302 303 302 300 300 297 296 295 294 296 294 299 299 302 303 298 296 298 297 297 298 299 301 303 302 301 302 302 303 303 305 306 307 306 307 307 310 312 311 309 308 309 310 310 309 307 307 307 308 308 308 310 310 310 311 312 311 312 313 314 315 315 315 314 314 314 315 314 313 313 314 315 315 314 313 311 310 309 308 307
295 294 298 301 303 303 303 302 300 298 296 297 295 295 294 295 298 300 300 302 300 296 294 297 295 295 297 299 301 302 302 303 304 304 304 305 305 306 306 306 306 306 307 307 307 308 308 309 309 309 309 309 308 308 308 308 308 308 309 309 310 310 310 310 311 312 312 314 315 314 314 314 313 315 315 314 314 314 313 313 311 310 309 308 307 306
295 299 301 303 303 301 301 301 299 297 297 295 295 293 292 297 295 292 299 299 299 297 295 296 294 295 299 301 302 303 303 303 305 305 305 306 305 305 305 304 304 305 306 304 305 306 306 306 306 307 306 306 306 306 306 306 306 307 307 308 309 309 310 309 310 310 312 313 314 314 314 313 313 312 312 312 312 312 311 310 309 309 309 307 306 305
298 303 303 303 302 301 298 299 298 296 294 298 297 295 294 295 296 296 296 298 299 299 299 296 295 296 301 299 300 302 303 304 305 306 306 307 307 306 307 306 306 304 304 305 304 304 304 305 305 305 305 306 305 305 305 306 305 306 306 307 308 308 308 309 308 308 309 310 310 310 310 308 309 309 306 307 307 308 307 307 307 306 307 307 306 305
298 303 303 299 299 299 298 296 297 297 293 296 299 298 297 298 296 297 297 295 293 293 294 294 288 291 297 298 299 302 303 302 304 305 303 303 303 304 303 303 304 306 306 303 303 303 303 304 304 303 303 304 304 303 304 305 305 306 306 307 307 308 308 307 308 308 308 308 307 306 305 304 304 303 304 303 303 305 305 305 307 307 306 306 305 305
299 302 301 299 299 298 297 296 298 298 294 293 295 300 299 297 296 295 295 294 288 287 294 296 287 285 296 296 299 300 301 302 304 302 300 301 301 301 301 302 302 302 302 303 302 303 302 301 301 301 301 301 301 302 304 304 304 305 305 306 306 306 307 308 307 307 306 306 306 305 305 305 305 304 305 306 307 306 306 307 306 306 305 305 304 304
299 299 297 298 297 297 296 294 298 298 295 292 297 299 298 296 295 295 294 293 290 295 296 295 293 287 288 295 300 301 299 300 301 299 300 300 300 300 300 300 300 300 301 301 301 300 301 300 300 299 300 300 300 301 302 303 303 303 303 304 305 305 305 306 306 306 306 305 305 305 305 305 304 304 304 305 305 306 305 305 305 305 304 304 304 303
298 297 297 296 296 296 295 298 303 301 296 296 296 297 296 295 294 294 293 292 292 291 287 293 295 288 288 296 299 300 297 298 298 297 298 299 299 299 300 300 300 300 300 300 299 299 299 299 299 299 299 300 300 300 300 301 302 302 303 302 303 303 303 304 305 305 305 305 304 304 304 304 305 304 304 304 305 304 304 303 303 303 302 302 302 303
298 298 300 300 297 294 299 299 300 301 295 300 297 297 297 296 296 295 292 291 291 288 285 290 293 287 289 297 296 297 295 296 296 298 298 298 298 298 298 299 299 299 299 299 299 299 298 299 299 299 299 299 299 300 301 301 301 301 301 301 301 301 301 302 303 303 304 304 304 303 303 303 303 304 304 304 303 303 303 301 301 301 301 301 300 301
298 296 298 298 297 300 298 295 297 300 299 297 298 296 295 296 294 294 293 291 288 284 287 293 294 292 285 294 296 296 296 296 297 297 297 298 298 298 298 297 297 297 297 297 297 297 298 298 298 298 297 297 298 299 299 299 300 300 300 300 299 299 300 301 301 302 302 303 303 303 303 302 302 303 303 302 302 302 303 301 301 301 300 300 300 300
298 296 295 298 301 299 299 297 295 296 297 297 294 292 292 291 294 290 289 290 284 284 291 293 294 294 284 291 296 297 298 298 297 296 295 295 296 296 296 296 296 296 295 296 296 295 296 296 296 296 296 296 296 297 297 298 299 299 299 299 298 298 298 299 300 300 301 301 302 302 302 302 302 302 301 301 301 302 302 302 301 301 300 299 300 299
293 295 298 300 298 299 297 295 296 294 294 293 292 290 287 286 288 285 288 282 284 284 288 291 292 288 288 293 298 300 300 297 298 297 296 295 295 295 294 294 294 295 294 294 293 294 294 294 294 294 294 295 294 294 295 296 297 297 298 298 298 297 298 298 299 299 299 300 300 300 300 301 301 301 301 301 301 301 301 301 301 301 300 300 299 298
294 298 298 298 297 298 299 291 292 290 292 292 290 288 286 283 283 280 284 286 286 289 289 290 292 286 292 294 299 299 299 297 297 297 296 295 293 292 292 293 293 293 293 292 292 292 292 292 293 293 293 293 293 293 294 295 295 296 296 296 296 297 298 298 298 298 298 298 299 299 299 299 300 300 300 300 300 300 300 301 301 300 300 300 299 298
286 287 294 295 294 299 297 297 297 296 294 292 296 293 289 288 284 279 282 279 281 284 288 290 287 284 285 291 299 297 296 297 296 296 295 294 293 293 292 292 292 291 290 291 290 290 291 291 291 291 292 292 292 292 293 293 294 295 295 295 295 295 296 297 297 297 297 297 298 298 298 298 298 298 298 299 300 299 299 300 300 300 300 300 300 300
290 289 296 300 298 298 296 299 301 298 295 295 296 296 290 288 293 284 286 285 284 284 285 286 285 291 291 299 300 298 297 295 295 294 293 292 292 292 291 290 289 289 289 289 289 290 290 290 290 290 291 291 291 291 292 292 293 293 293 294 294 294 295 296 296 297 297 297 297 297 297 297 297 297 298 298 299 299 299 299 299 299 299 299 299 300
290 287 295 298 297 297 296 296 297 299 286 291 291 287 290 296 293 288 287 288 287 285 281 289 287 292 297 298 300 298 293 293 293 292 291 290 290 290 289 289 289 289 289 288 288 288 288 289 289 290 289 289 289 290 290 291 292 292 292 293 293 293 294 294 295 296 296 297 297 296 296 296 297 297 297 296 297 297 298 298 298 298 299 299 299 299
287 289 297 296 294 295 293 296 297 296 298 292 286 292 295 297 295 289 281 284 283 280 281 288 284 286 288 284 297 295 291 291 290 290 290 290 289 288 288 288 288 288 288 288 288 288 287 288 288 289 289 289 289 290 290 290 291 291 292 292 292 292 292 293 294 294 295 295 296 296 296 296 296 295 296 296 296 297 297 297 297 298 298 298 299 299
295 286 293 296 296 294 296 296 294 298 299 294 293 298 289 284 284 289 285 277 278 277 280 284 287 287 289 289 294 292 291 290 290 290 289 289 288 287 287 287 287 288 287 287 287 287 287 287 287 287 288 289 289 290 291 290 290 290 290 291 291 290 291 292 293 294 294 295 295 295 295 295 295 295 295 295 295 295 295 295 296 296 296 297 298 297
296 286 288 297 294 295 295 294 287 292 295 297 296 293 297 291 286 284 286 285 284 278 279 280 285 282 292 292 294 292 292 290 290 289 288 288 288 288 288 287 286 287 287 287 287 288 288 288 287 287 287 287 288 289 290 290 290 289 290 289 289 290 290 290 291 291 292 293 293 293 293 293 294 294 295 295 294 294 293 294 294 294 294 295 296 296
290 294 282 291 294 295 288 293 289 292 289 289 289 288 291 288 292 290 287 285 283 280 280 279 278 284 291 294 294 291 291 292 291 289 289 288 288 288 288 288 288 287 287 286 286 287 287 287 287 287 288 288 288 289 289 290 289 289 289 289 289 289 289 289 289 290 290 290 290 291 291 291 292 292 293 293 294 293 293 293 293 293 294 294 294 295
290 290 285 287 289 289 290 297 296 296 295 293 291 287 290 286 285 281 279 289 285 282 279 279 277 285 293 292 292 292 292 292 292 291 290 289 289 289 289 288 287 286 287 286 287 287 287 286 287 287 288 288 288 288 288 289 289 288 288 288 288 288 288 288 289 289 289 289 289 289 289 289 291 291 291 291 292 291 292 292 292 293 293 292 293 293
294 292 288 284 286 288 292 295 299 298 297 296 293 290 293 291 289 284 277 281 286 285 286 283 280 283 290 292 292 291 292 291 291 291 290 289 288 288 288 287 287 287 286 287 287 287 287 287 287 287 287 287 287 287 287 288 288 288 288 288 288 287 287 289 289 289 289 288 288 288 288 289 289 289 289 289 289 289 290 291 291 292 291 291 292 293
293 287 285 286 290 293 295 296 298 297 297 293 293 294 292 288 289 286 284 285 283 284 282 283 278 284 289 292 291 291 290 290 290 290 289 288 287 287 286 286 286 286 287 287 288 288 288 288 287 287 287 287 287 287 287 288 288 288 288 288 288 287 287 288 288 288 289 288 288 288 288 287 288 287 288 287 288 288 290 290 290 291 290 291 291 291
286 287 287 281 282 284 287 291 292 294 294 290 289 291 292 292 291 289 287 287 280 282 282 280 274 282 288 288 288 289 289 288 288 288 288 286 286 286 286 286 286 287 287 287 288 288 288 288 287 287 287 287 286 287 287 287 288 288 288 288 288 288 288 288 288 288 288 288 288 287 287 286 287 286 287 287 287 287 288 289 289 290 289 290 290 290
289 286 284 278 276 274 274 276 279 282 285 286 287 287 289 289 288 285 281 283 278 282 283 278 278 285 290 289 288 288 287 286 286 286 286 287 286 286 286 286 286 286 286 286 287 288 287 287 288 287 287 287 287 287 287 287 288 288 288 288 289 288 288 288 288 287 288 288 287 287 287 287 286 286 286 287 287 287 288 288 288 288 289 289 288 289
286 287 286 283 281 279 281 284 287 288 285 282 285 287 287 289 289 287 285 280 277 280 279 281 282 282 285 288 289 290 287 286 285 286 285 285 286 286 287 287 286 286 286 285 286 286 287 287 286 287 287 287 287 287 287 287 287 287 288 288 288 289 288 288 288 287 287 287 287 286 286 286 286 286 287 287 287 287 287 287 287 287 287 288 288 288
285 283 284 284 284 284 286 285 287 287 283 284 284 284 286 286 286 284 281 278 284 280 275 283 284 282 283 287 288 289 289 287 287 287 286 286 286 286 286 287 287 286 286 286 286 286 285 286 286 287 287 287 287 287 287 287 287 287 287 287 288 288 288 289 288 287 287 287 287 286 287 287 286 286 287 286 287 287 287 287 287 286 287 287 287 287
283 280 284 284 282 285 287 286 287 286 285 285 284 284 283 284 284 281 282 284 283 278 276 282 283 281 283 286 287 288 287 286 286 285 285 285 285 286 285 285 286 286 286 285 285 286 286 286 287 287 287 287 287 287 286 286 287 287 287 287 287 288 287 288 287 286 286 286 286 286 287 287 287 287 287 286 286 286 286 286 286 286 286 286 286 287
284 281 283 283 281 283 284 285 286 284 283 283 283 283 284 283 283 283 283 284 283 281 283 283 283 283 285 286 288 286 286 285 285 285 286 285 284 284 285 285 285 286 286 286 285 286 286 286 286 286 286 286 286 286 286 286 286 286 286 287 287 287 287 287 287 286 286 285 285 286 286 286 286 287 286 286 285 285 285 285 285 285 285 285 286 286
284 279 283 280 280 280 283 284 284 284 282 280 282 283 283 282 282 283 282 282 283 281 282 282 281 281 286 285 285 285 285 286 284 284 284 284 284 283 283 283 283 284 285 286 286 286 286 286 286 286 286 287 287 287 287 287 287 287 286 286 286 286 287 287 286 285 285 285 285 285 285 285 285 286 285 286 285 285 285 285 285 284 284 284 285 285
285 280 283 280 276 276 280 280 280 280 278 277 276 278 278 279 278 280 279 282 281 279 281 281 279 279 284 284 285 284 284 283 281 282 283 283 283 283 282 283 283 283 284 285 285 285 285 285 285 286 286 286 287 287 287 287 287 287 286 286 286 286 286 286 285 285 285 285 285 285 285 285 285 284 285 285 285 285 285 284 284 284 284 284 284 285
283 280 278 278 275 274 279 277 276 276 275 272 274 277 279 280 281 281 282 283 282 282 278 276 277 283 283 285 282 281 281 281 282 282 282 282 282 282 282 282 283 283 284 284 285 285 285 285 285 285 286 286 287 287 288 288 287 286 287 286 287 287 286 285 285 285 285 284 284 284 284 284 284 284 284 284 284 284 284 284 284 284 283 283 284 284
281 280 277 280 272 273 277 275 275 272 267 269 282 283 282 279 280 278 278 280 282 283 280 282 280 280 282 281 280 279 280 280 281 283 284 283 282 282 283 283 283 284 284 285 285 286 286 286 285 286 286 287 287 288 289 289 288 288 288 287 286 285 285 285 285 284 284 284 284 284 284 284 284 283 283 284 284 284 283 283 282 283 284 284 284 284
280 279 278 279 274 272 275 272 270 265 267 279 282 284 284 282 281 279 280 281 281 281 282 282 282 280 282 281 280 281 282 283 283 283 283 284 284 283 283 283 283 284 283 284 284 285 286 286 286 286 286 286 288 288 288 288 288 288 286 285 284 284 284 284 283 283 283 283 284 284 284 283 283 283 283 283 283 283 282 282 282 282 282 283 283 283
278 278 278 276 277 276 273 271 263 265 275 277 279 281 281 282 280 279 277 280 281 282 282 281 283 283 282 281 281 282 281 282 283 284 284 285 285 284 284 283 283 283 283 284 284 285 285 286 286 286 287 287 287 287 287 287 286 285 283 283 282 282 282 282 282 282 282 282 283 283 283 283 282 282 282 282 282 282 281 281 281 281 282 282 282 283
281 280 278 274 278 269 271 270 269 275 275 276 277 279 280 278 279 278 273 277 281 282 283 282 283 282 280 280 281 281 282 282 281 281 285 285 286 286 285 284 284 284 284 285 285 285 287 287 286 286 286 285 285 284 284 284 283 282 281 281 281 281 281 281 281 281 281 282 282 282 282 282 282 282 281 282 281 281 280 280 280 280 281 280 280 280
282 277 278 274 272 276 270 269 269 269 265 272 279 281 283 283 282 281 278 274 281 281 283 282 280 278 279 279 280 280 281 278 276 279 283 284 285 285 285 286 285 285 285 285 285 285 286 285 284 284 283 282 282 282 282 282 281 280 279 279 279 279 279 279 279 280 280 280 280 281 281 281 281 280 280 280 280 280 280 280 280 280 280 279 279 279
279 281 278 275 272 273 270 268 267 265 267 276 274 278 279 279 281 280 276 271 278 277 279 278 278 279 279 279 279 280 277 273 274 278 283 284 284 285 284 284 284 284 285 285 284 284 283 283 282 282 281 281 280 280 281 280 280 278 278 278 278 278 277 278 278 278 278 278 279 279 280 280 280 279 279 278 278 279 278 278 278 279 279 279 279 279
274 276 276 272 271 271 270 268 267 271 269 275 278 281 281 282 283 278 266 267 277 278 280 279 279 279 279 280 280 278 276 273 275 279 283 284 284 285 284 284 283 284 284 284 284 283 282 282 281 280 279 279 279 279 279 278 278 277 276 275 276 275 275 276 276 277 277 277 277 277 277 277 277 277 276 276 276 277 277 278 278 278 278 278 278 278
272 273 275 269 271 271 272 269 271 271 277 278 279 282 282 283 278 268 263 272 277 279 280 281 279 280 280 279 279 276 279 280 281 282 284 284 283 284 284 284 284 284 282 282 281 282 280 280 279 278 278 278 278 277 277 276 275 274 274 273 273 273 274 275 275 275 275 275 275 275 275 275 274 273 274 274 274 275 275 275 275 276 276 276 276 276
270 271 272 274 270 269 270 269 269 272 277 279 281 282 283 277 268 267 276 281 280 279 281 281 280 281 281 280 280 280 281 282 283 283 283 283 283 283 283 283 283 282 282 281 281 280 279 278 277 277 276 277 276 275 274 273 272 272 271 271 271 272 273 273 273 273 272 272 271 271 270 270 270 271 271 271 271 271 272 273 273 274 274 274 274 274
272 269 268 270 272 272 271 267 267 263 275 280 280 278 281 272 273 279 281 281 281 280 281 281 281 281 282 280 281 281 281 282 282 282 283 283 282 282 282 281 280 279 279 278 278 278 277 275 275 274 274 274 273 273 272 271 270 269 270 269 270 271 271 270 269 269 269 268 267 266 266 266 267 267 267 267 268 268 268 270 270 271 272 272 272 272
277 271 271 272 275 268 268 266 265 273 277 280 279 273 278 280 282 282 282 280 283 282 281 281 281 281 281 280 280 281 281 281 281 282 282 282 282 281 280 280 279 278 278 278 277 276 275 273 273 272 271 271 271 271 271 270 268 268 267 267 269 268 268 267 267 266 265 264 264 263 263 264 264 264 264 265 265 265 265 265 267 268 269 269 270 270
277 273 275 271 276 273 270 273 277 280 280 281 282 281 281 282 283 283 282 282 281 281 282 280 280 282 282 281 281 281 280 280 280 281 280 280 279 279 278 278 277 277 276 276 275 274 272 271 269 269 269 269 269 269 268 268 266 265 264 265 266 266 265 265 264 263 262 261 261 261 262 262 262 262 262 262 263 262 263 264 265 265 266 267 268 268
280 280 279 277 275 279 280 280 281 280 280 281 283 283 282 282 283 283 283 281 282 282 282 281 282 282 281 281 279 279 279 280 280 280 279 278 278 278 277 277 276 276 275 274 273 272 270 269 268 267 266 266 267 266 266 266 265 263 263 265 265 264 263 262 261 261 260 260 260 260 261 260 260 261 261 262 262 262 263 263 264 264 264 265 266 266
279 279 277 274 276 273 269 279 278 278 280 281 281 283 284 284 283 284 283 282 282 282 283 282 281 281 280 280 279 278 278 279 277 277 277 277 276 276 275 275 274 274 272 271 271 269 268 267 265 265 264 263 264 264 264 263 263 263 263 263 263 263 262 261 261 260 260 259 260 260 260 260 260 260 260 261 261 262 262 263 263 263 263 264 264 264
274 281 275 275 274 272 272 277 278 280 281 281 281 280 280 282 282 283 283 283 282 281 280 280 279 278 278 276 277 276 276 277 276 275 275 275 274 274 273 273 272 271 271 270 269 267 265 265 263 263 262 262 263 263 262 262 262 262 262 262 262 262 261 260 260 259 259 259 259 259 259 259 260 260 260 260 261 261 261 261 262 261 261 262 262 262
278 280 272 275 273 275 278 278 279 280 280 280 281 282 283 283 282 282 283 281 280 279 278 277 277 277 277 276 276 275 273 274 274 274 273 272 272 272 272 271 270 269 268 267 266 265 264 263 262 261 261 261 261 262 261 261 261 262 262 262 262 261 260 259 259 259 259 259 259 259 259 259 259 259 260 260 260 261 261 261 261 261 261 262 263 263
278 274 277 275 271 271 272 275 278 273 273 278 280 282 282 283 283 282 280 279 279 278 277 275 275 275 274 274 273 273 272 272 272 272 271 271 270 270 269 268 268 267 266 266 264 263 263 262 261 260 260 260 261 261 261 261 261 262 262 261 261 260 259 259 258 258 258 258 258 258 259 259 259 259 259 259 259 259 260 263 266 265 262 262 266 269
276 277 277 273 272 272 277 279 280 280 279 280 281 282 282 281 281 280 279 279 279 278 276 275 274 273 272 272 273 271 270 270 270 270 269 268 268 268 267 266 265 264 264 263 262 262 261 260 260 259 259 259 260 260 260 260 261 261 261 261 261 260 259 259 258 258 258 258 258 258 258 258 258 259 259 259 259 259 259 259 261 266 268 268 268 269
Wind_Speed
5 8 7 8 9 11 13 14 16 17 16 17 15 13 15 16 17 14 16 13 12 15 15 13 15 18 16 14 16 19 20 18 18 16 16 17 16 14 11 9 6 5 5 6 7 7 7 7 8 8 6 7 6 4 5 3 2 3 4 5 5 5 7 7 7 7 7 8 8 7 9 9 7 8 8 8 8 8 8 9 9 9 9 9 10 10
2 8 10 10 13 14 15 15 14 15 13 14 14 15 15 13 16 13 16 13 14 12 12 12 16 16 17 17 20 21 18 17 14 15 16 19 16 10 5 5 3 6 6 5 5 9 10 10 10 9 9 10 11 10 8 6 5 3 2 3 3 4 6 6 6 6 6 7 7 7 7 7 7 7 8 8 7 8 7 7 7 7 8 9 9 9
7 10 10 14 14 14 15 12 12 13 14 14 12 12 13 12 14 17 16 11 5 4 12 13 17 16 17 20 19 16 13 10 12 13 15 14 10 7 3 4 6 5 6 10 11 10 11 11 12 10 10 11 11 11 11 9 7 5 3 2 1 1 3 4 5 5 5 6 6 6 4 5 5 5 5 6 6 6 7 7 6 7 7 8 8 8
9 7 14 14 12 12 13 12 10 12 13 11 10 10 12 11 12 11 7 2 4 4 12 14 17 14 17 18 14 5 2 7 8 15 14 10 7 5 6 5 4 6 9 11 13 13 14 14 13 13 13 12 11 11 12 12 10 7 7 5 3 1 1 2 4 5 4 4 4 4 4 2 4 3 3 3 4 5 5 6 6 6 7 8 8 9
12 11 4 5 8 10 12 11 11 11 11 10 11 11 13 14 12 13 13 14 15 14 12 11 12 11 7 4 5 5 4 7 14 13 3 4 4 3 4 6 8 10 10 11 13 15 14 14 15 15 14 13 14 14 14 13 12 8 10 8 6 3 1 1 2 4 3 3 3 2 2 1 2 2 2 4 5 6 6 7 8 9 9 10 10 10
14 15 4 4 6 8 8 10 13 11 11 10 12 14 16 16 16 15 15 14 9 9 8 12 11 6 2 2 5 9 11 17 14 10 10 11 11 10 10 11 12 11 13 14 15 15 14 14 15 16 17 17 15 16 14 13 13 13 11 10 8 5 4 3 0 2 3 3 3 4 4 4 5 5 6 7 7 6 8 8 7 8 9 9 9 10
7 4 3 6 8 7 8 10 13 8 10 9 6 6 7 9 11 12 12 8 7 6 2 7 6 10 4 11 12 10 12 15 11 11 13 12 11 12 13 13 13 13 14 15 16 16 17 16 16 18 18 17 17 15 14 13 14 14 12 11 9 7 6 5 3 0 2 3 3 4 5 5 5 6 5 5 6 6 5 5 7 7 8 9 10 10
6 6 3 2 5 7 7 9 10 11 9 9 4 4 5 7 8 8 6 6 10 9 12 9 7 10 11 8 9 8 16 13 5 15 14 11 14 13 13 15 15 15 14 13 15 16 16 17 17 17 17 16 16 14 14 14 14 15 15 13 12 9 8 6 5 2 1 1 1 3 4 5 5 6 7 6 5 4 5 4 5 6 6 8 9 9
3 5 5 5 6 6 9 10 2 6 8 3 2 3 5 4 6 5 6 7 7 10 10 3 8 6 7 6 4 9 11 9 9 13 12 13 13 13 13 13 15 15 15 15 14 15 16 16 16 16 16 16 16 15 14 14 13 13 13 14 13 12 10 9 8 6 4 3 4 3 3 4 4 5 6 6 5 4 4 5 5 6 6 7 8 9
1 1 5 6 5 8 9 6 1 5 8 2 1 1 2 2 4 7 6 7 8 7 13 6 9 5 10 3 4 1 2 2 11 9 12 13 13 10 11 12 14 13 12 13 14 14 15 15 15 14 14 16 14 13 14 13 13 13 13 14 14 14 11 10 10 8 7 5 4 4 4 6 6 6 6 5 6 6 4 5 6 6 6 6 7 8
4 2 4 3 9 8 1 5 4 2 2 4 1 6 7 6 7 6 5 5 4 9 11 11 14 8 6 2 3 3 1 5 5 8 10 12 11 11 11 13 12 12 12 11 12 14 14 14 14 14 16 15 16 14 14 13 13 12 13 13 14 14 11 12 11 11 9 7 6 5 6 7 7 8 7 7 7 6 6 6 5 6 6 6 6 7
9 5 2 5 9 1 1 2 3 2 2 1 3 4 6 8 7 4 3 4 5 9 2 5 8 10 5 2 4 6 5 3 6 5 12 11 11 9 10 11 12 12 11 11 12 13 14 15 16 15 16 15 15 15 14 13 12 12 13 14 15 15 15 12 11 11 10 8 8 7 7 7 7 8 7 8 8 8 8 8 7 6 5 6 6 6
5 10 11 5 3 9 6 6 3 4 3 3 4 4 5 5 2 6 4 4 6 7 4 2 3 6 13 12 14 7 2 10 8 7 9 12 10 10 11 12 11 10 11 11 11 11 11 12 12 13 13 13 14 13 13 13 12 12 13 14 14 15 15 13 12 12 12 11 10 9 8 8 7 7 8 8 8 8 8 8 7 6 6 5 5 6
7 5 9 8 0 8 8 8 4 3 8 7 7 5 4 6 6 10 7 7 9 3 4 1 2 9 11 12 15 15 1 11 13 13 13 12 12 11 11 10 10 10 10 10 11 10 11 11 11 11 11 12 12 13 13 12 12 11 12 14 15 14 14 13 13 13 13 12 11 10 9 8 7 7 7 7 7 7 8 7 8 7 7 6 6 6
12 9 7 9 4 10 12 11 9 8 8 11 8 8 6 6 5 9 6 11 9 9 2 3 4 4 2 5 11 15 14 12 13 13 12 13 13 12 11 10 10 10 10 9 10 10 10 10 10 11 12 12 12 14 14 13 13 12 12 12 13 13 14 14 13 12 14 11 12 11 9 8 8 7 7 7 7 7 8 8 8 8 7 7 7 7
11 13 3 8 5 9 11 11 3 2 2 4 2 1 4 7 4 11 7 9 10 10 9 4 6 3 5 5 6 12 13 14 13 13 12 12 11 11 10 10 9 8 9 9 9 8 9 10 11 11 11 10 10 12 11 12 11 12 12 13 14 14 14 14 14 13 12 11 10 11 11 10 9 8 8 7 7 8 8 8 8 8 8 8 8 8
6 8 6 1 4 3 2 4 1 1 5 2 4 5 4 4 2 7 8 9 9 6 14 8 12 13 8 13 19 13 17 13 11 12 11 11 10 10 9 7 7 6 6 5 6 7 10 10 10 9 8 8 8 8 9 9 9 10 10 11 12 13 14 15 15 14 14 12 11 11 11 11 10 9 9 8 9 9 8 7 7 7 8 8 8 7
9 9 2 6 8 4 2 3 2 1 1 5 3 3 2 2 2 3 9 6 10 13 11 6 13 12 7 8 11 13 14 11 9 10 11 10 9 9 6 5 4 4 5 6 7 7 7 7 7 6 6 7 6 6 7 8 8 7 8 9 10 11 12 12 12 12 11 12 11 11 12 12 11 10 9 9 9 9 8 8 8 8 7 8 7 7
5 9 7 3 2 3 4 2 5 6 4 6 5 5 3 3 6 7 5 10 12 12 9 10 15 14 13 12 3 10 11 10 9 8 8 8 7 7 7 6 5 5 4 4 4 4 3 3 3 3 3 5 6 6 6 6 8 9 9 10 10 12 11 11 9 9 8 9 7 8 10 11 11 11 10 10 10 10 9 10 9 9 9 9 8 7
2 8 9 3 2 4 3 4 6 5 5 3 2 5 1 2 6 11 8 4 3 14 10 10 8 10 9 7 4 8 9 9 8 7 7 7 7 6 5 4 3 3 3 3 3 2 1 1 2 3 4 5 6 6 5 5 5 7 8 9 10 10 9 9 8 7 6 7 8 10 10 11 11 11 10 10 10 9 10 10 10 10 10 10 9 8
6 5 12 4 4 1 5 6 8 10 7 6 6 8 4 3 2 2 2 4 7 11 10 9 10 8 3 5 4 9 9 8 8 8 6 5 5 5 4 3 2 2 2 1 1 1 1 2 3 4 3 3 3 4 5 5 6 6 6 7 6 7 7 9 9 9 9 9 10 11 11 10 10 11 9 10 8 8 9 9 9 9 9 9 9 8
3 4 11 9 8 9 10 5 4 6 6 4 3 6 8 7 6 8 11 6 4 7 8 10 12 7 3 5 7 6 6 7 7 7 6 6 6 5 4 4 2 2 1 1 1 2 3 3 4 4 3 3 3 4 4 5 5 6 7 6 6 6 7 7 7 8 8 8 9 11 10 10 8 9 9 10 10 11 10 10 9 9 9 9 9 8
3 4 7 12 12 13 14 15 5 2 5 6 4 5 7 6 5 7 9 6 5 8 7 12 12 8 4 3 7 6 4 6 5 4 4 4 3 4 4 3 2 2 2 2 2 3 2 3 3 3 3 3 2 2 2 3 5 6 7 7 7 7 8 7 6 6 6 7 8 9 9 9 9 9 10 10 9 10 10 10 10 9 10 9 9 8
5 2 7 11 11 12 16 16 5 3 5 9 9 10 8 13 12 13 9 4 7 7 11 10 12 4 3 4 5 6 7 4 4 3 4 4 2 2 2 1 2 2 3 3 3 3 3 2 2 3 4 4 4 4 5 5 4 5 5 6 6 7 8 7 7 6 5 5 5 6 7 7 8 9 10 10 9 10 10 9 9 9 10 10 9 10
3 4 6 5 6 7 9 8 5 5 1 4 4 3 4 5 6 4 5 4 6 6 12 13 12 8 3 2 0 5 6 5 4 3 4 3 4 3 2 2 2 3 3 3 3 3 3 1 2 4 4 5 6 5 6 6 6 6 6 7 7 7 7 7 7 7 7 8 8 7 7 7 7 7 7 8 8 9 9 9 9 8 9 10 10 10
4 3 2 7 9 10 10 8 7 2 2 2 1 9 10 9 9 5 7 4 8 2 4 3 7 4 4 8 8 8 6 6 5 5 4 5 4 4 3 2 1 1 1 3 3 4 4 3 3 3 5 5 6 6 7 7 7 7 7 7 7 7 7 7 7 8 8 8 8 8 8 7 7 7 7 6 6 6 7 7 8 8 8 8 9 9
1 1 4 8 10 10 10 9 3 4 7 8 7 7 10 10 7 7 8 11 12 9 10 8 11 13 15 16 15 13 7 5 6 6 5 5 5 4 2 2 1 1 2 3 5 4 5 5 6 7 7 7 7 8 7 7 8 8 8 9 9 8 7 8 7 8 8 8 8 8 8 7 8 8 7 8 8 8 7 7 7 7 7 7 8 9
2 6 8 10 12 14 16 16 16 14 14 15 13 15 15 15 11 10 11 14 7 11 16 8 15 14 14 15 15 14 10 6 4 3 4 3 4 3 3 4 5 5 5 4 4 5 4 5 6 7 8 8 8 8 8 8 8 9 9 9 9 8 7 6 7 7 7 8 8 8 8 7 8 8 8 7 8 8 9 9 9 9 8 8 8 7
3 9 9 9 9 15 16 19 17 14 13 14 16 16 17 17 14 15 13 15 16 14 16 15 20 19 19 18 16 8 6 2 3 2 1 0 1 4 4 5 7 7 5 5 5 4 5 5 5 5 5 5 6 6 6 6 6 6 6 7 7 7 8 8 8 9 9 8 8 8 7 8 7 7 8 8 9 9 9 9 10 10 11 10 9 7
2 8 10 9 10 11 15 16 13 14 14 15 16 18 19 19 20 18 17 18 19 19 20 22 24 26 23 23 13 4 3 4 1 2 2 3 2 2 4 5 6 7 7 7 6 6 6 5 6 6 6 6 6 6 6 6 6 6 6 7 7 7 6 6 7 8 8 9 9 9 9 9 8 8 8 8 8 8 9 9 9 10 11 11 11 11
4 5 6 2 5 9 12 12 12 11 13 14 16 18 20 21 19 16 18 17 19 21 22 23 24 25 12 5 6 3 4 2 2 2 1 2 1 2 3 4 6 6 7 7 7 6 6 7 7 7 7 8 8 7 7 6 6 5 6 6 6 6 6 6 7 8 8 9 9 9 9 9 9 9 9 8 8 9 9 9 10 10 9 10 11 11
4 6 1 1 8 12 8 4 3 3 6 9 14 19 22 20 17 16 15 13 15 17 20 21 18 15 2 4 5 2 3 2 3 3 4 2 3 4 5 6 7 7 8 8 8 7 7 7 7 7 7 8 8 8 8 7 7 6 7 7 7 7 6 6 7 7 8 8 9 10 10 10 10 10 10 9 9 8 7 8 8 9 10 9 9 9
3 2 3 5 8 8 6 5 2 4 7 11 16 20 18 18 18 19 19 20 21 18 15 13 10 3 3 2 2 2 3 4 5 5 4 5 4 5 6 8 8 9 9 9 9 9 8 8 8 8 8 8 8 7 7 7 7 8 7 7 7 7 7 8 8 8 9 9 10 10 10 10 11 12 10 10 9 8 8 9 9 10 10 10 10 10
2 4 4 3 4 4 5 2 1 3 11 15 2 5 5 9 10 15 15 17 16 12 5 3 1 2 1 3 1 1 3 5 7 7 6 6 6 6 8 8 9 9 10 10 10 10 10 8 7 7 8 9 9 8 8 7 7 7 7 7 7 8 8 9 9 9 10 11 11 10 10 10 9 10 11 11 10 10 10 10 11 10 9 10 9 9
6 5 7 3 4 5 0 2 7 11 15 2 3 1 3 5 8 14 14 11 7 3 3 7 4 4 3 3 1 3 4 6 8 9 10 9 8 8 9 9 9 9 11 11 12 12 13 12 11 11 10 8 7 7 7 7 7 7 7 8 9 9 10 10 12 12 11 12 12 12 10 12 11 11 11 11 11 10 10 11 12 12 11 10 10 11
12 11 9 10 11 10 9 10 9 8 0 1 4 3 3 4 10 12 13 13 14 11 10 11 9 5 5 1 3 4 6 8 8 10 11 11 9 9 8 8 9 9 10 10 12 12 13 13 12 11 10 8 8 7 7 7 7 7 8 8 10 10 11 12 12 13 12 12 13 13 12 12 11 11 11 11 11 11 12 12 12 12 11 11 10 10
14 11 12 13 8 11 10 14 17 10 14 15 15 12 7 5 4 5 7 5 4 3 5 4 5 4 2 4 6 6 7 7 8 7 8 7 7 7 7 7 8 9 9 10 11 12 11 9 9 10 9 9 8 8 7 7 7 8 9 10 10 11 11 12 13 13 13 13 12 12 12 12 11 11 11 11 12 13 13 13 14 13 10 11 12 13
13 14 11 11 7 11 13 13 12 11 11 4 6 1 7 4 6 6 7 5 6 6 5 5 1 2 3 5 6 8 7 8 7 6 5 6 6 6 5 6 7 9 9 10 10 10 9 8 9 10 9 10 10 9 8 8 8 9 9 9 10 11 12 11 12 13 12 13 12 13 12 10 11 11 12 12 13 14 13 13 13 13 11 12 13 14
6 8 8 11 10 8 12 13 12 8 4 5 4 4 2 3 2 3 5 9 1 2 4 6 3 1 2 5 8 8 6 7 8 8 7 8 10 10 8 7 8 9 9 9 9 8 8 9 10 10 10 10 11 11 10 10 9 9 9 10 11 11 12 12 13 13 13 14 14 13 12 12 12 12 13 14 14 14 15 14 14 13 13 13 12 14
4 6 8 10 13 11 10 12 13 6 6 0 3 4 4 3 4 5 10 7 2 2 3 1 2 6 7 7 8 6 6 8 9 9 10 12 10 9 10 10 9 9 7 7 6 6 8 9 10 10 10 11 11 11 11 9 9 9 10 11 11 11 11 13 13 13 13 14 14 11 11 12 13 13 14 15 16 15 15 14 14 15 14 14 13 13
4 4 9 12 11 12 15 11 8 8 4 4 6 9 3 3 2 4 11 4 3 2 3 1 4 7 7 8 6 7 8 9 11 12 13 12 11 10 9 8 7 6 7 7 7 7 8 8 8 9 11 10 10 10 10 8 9 10 11 12 12 12 13 13 13 13 14 13 13 13 13 12 12 15 16 16 16 16 16 15 16 16 15 15 14 15
2 3 4 9 11 11 11 12 10 10 6 4 6 3 6 2 6 9 2 6 7 3 5 7 8 8 8 9 8 8 9 11 12 12 13 12 10 10 9 6 5 7 6 6 7 7 7 8 9 11 11 9 10 10 9 8 10 11 11 11 11 12 13 13 13 13 11 12 11 13 16 18 18 17 16 17 17 17 17 17 17 17 17 15 16 18
5 5 6 9 6 5 7 9 9 10 1 8 6 3 6 5 5 5 1 6 6 4 4 6 7 8 7 9 10 10 11 12 12 13 12 11 9 7 7 6 7 8 8 9 9 8 7 8 10 11 11 10 10 9 8 9 11 11 11 12 13 13 13 12 14 15 14 13 14 16 17 17 18 17 15 16 17 18 19 18 18 18 17 18 18 19
6 9 8 9 6 6 8 8 6 4 5 3 7 4 3 6 7 9 4 4 3 4 8 9 10 9 10 11 11 11 11 12 12 11 10 8 7 6 6 7 7 8 9 8 7 7 6 8 9 11 12 10 9 9 9 9 11 12 13 16 15 14 14 13 12 13 14 14 14 16 16 15 16 15 15 16 16 16 19 19 18 18 17 18 18 18
8 10 7 10 4 6 4 7 6 6 4 4 7 7 10 13 12 9 3 5 7 9 8 9 11 9 9 9 9 10 11 11 11 9 7 7 7 7 7 8 8 8 9 9 8 6 5 8 10 12 13 11 10 11 9 8 10 14 16 15 12 13 13 14 15 14 15 16 16 15 16 16 14 15 15 16 15 16 16 17 16 16 16 16 16 17
5 9 4 7 7 10 14 15 12 13 12 8 9 10 13 15 14 10 7 9 9 9 9 10 9 8 8 6 5 8 9 10 9 7 7 8 8 8 8 8 8 8 8 7 6 6 7 8 8 10 13 15 11 11 9 9 9 13 14 14 13 13 13 14 15 16 17 16 16 15 16 17 18 15 14 15 13 14 14 15 15 15 15 15 16 16
12 14 9 8 4 7 8 8 11 15 16 14 16 15 12 12 11 10 9 9 9 8 5 4 5 6 6 4 6 8 8 6 7 8 8 8 8 8 8 9 8 7 7 6 8 7 7 7 10 12 12 15 12 10 10 10 10 11 12 13 14 14 14 14 15 18 17 16 16 16 15 17 14 14 14 13 12 12 12 12 13 14 15 14 15 15
9 12 11 10 10 12 11 13 14 14 14 15 14 13 13 13 13 12 10 6 1 2 2 3 1 2 3 4 6 7 7 6 7 8 7 7 7 8 8 8 8 8 7 7 8 6 6 8 10 13 14 14 13 11 11 11 11 12 12 12 11 12 13 15 16 17 17 18 16 15 15 15 19 18 14 13 12 13 12 12 13 14 15 14 14 15
3 4 5 4 9 9 14 17 18 18 19 18 17 15 13 12 10 11 8 2 2 3 4 3 3 4 3 4 2 4 4 7 6 7 7 7 7 7 7 8 8 9 9 9 7 6 8 10 11 11 12 14 13 13 13 13 11 10 11 12 13 12 15 17 18 18 20 17 16 16 14 14 14 13 14 14 13 13 13 12 13 14 15 15 13 16
10 12 6 4 8 10 10 13 13 11 10 11 13 13 13 11 9 7 2 2 4 4 4 5 5 3 3 2 3 3 4 5 5 6 7 6 7 8 8 8 8 9 8 8 8 8 10 9 10 13 14 14 13 12 12 13 14 13 11 11 11 14 15 16 19 18 17 16 15 15 15 14 14 14 14 14 15 15 14 17 24 20 17 18 23 30
14 16 10 10 10 11 13 16 14 13 14 14 15 10 3 5 3 4 6 7 5 4 3 4 4 4 4 4 2 1 4 5 6 6 7 6 7 7 8 9 10 9 10 10 11 10 8 10 11 13 15 14 12 12 13 13 12 13 12 13 14 13 15 16 16 16 16 16 15 16 15 15 15 14 14 15 15 15 16 15 14 23 29 29 29 30
Wind_Direction
162 219 210 212 231 242 250 248 253 264 275 284 287 278 276 276 277 278 274 282 286 291 280 284 291 294 295 291 288 280 273 270 268 277 277 271 268 271 279 294 331 348 337 320 314 337 360 1 5 6 11 5 3 10 354 332 279 228 216 198 200 180 186 186 188 193 192 195 202 208 212 214 208 208 208 209 211 213 210 202 195 183 180 180 183 188
212 235 236 235 239 248 258 269 276 282 281 280 278 278 275 270 279 277 284 293 290 284 289 287 287 291 300 296 281 275 281 283 279 266 262 263 267 285 342 38 10 329 311 311 22 41 45 34 28 33 32 29 34 22 16 15 353 342 297 243 215 181 183 191 193 192 196 204 207 206 214 218 218 207 206 212 211 214 215 211 201 191 182 183 181 184
212 228 234 234 239 249 262 268 272 274 276 272 270 276 280 278 280 283 279 283 309 339 287 301 300 296 288 279 277 285 288 280 264 253 257 268 291 308 329 315 329 342 24 50 55 58 53 49 42 38 39 40 35 30 28 19 13 14 358 341 284 193 179 194 197 194 200 206 212 219 227 220 225 226 226 223 221 213 215 210 204 196 184 185 184 182
252 239 237 238 246 254 260 257 265 267 260 259 261 262 267 283 290 297 297 252 235 260 299 305 299 290 270 263 267 262 90 256 253 254 262 277 294 323 324 355 10 38 48 61 58 52 52 44 38 34 34 34 34 32 28 21 20 22 17 14 2 345 189 194 195 205 208 212 209 207 230 227 225 229 218 226 224 219 213 210 200 199 195 190 190 186
256 280 31 239 242 250 261 266 262 260 264 255 252 260 271 274 279 291 306 314 310 297 282 306 285 290 292 216 205 199 220 261 270 263 231 72 85 82 80 55 42 52 59 64 58 52 45 42 38 35 31 29 31 27 23 20 20 16 17 16 16 7 10 255 176 185 201 176 174 169 156 102 200 237 211 201 214 208 200 205 203 200 194 194 195 192
260 265 127 213 217 250 258 260 251 255 272 275 262 257 265 280 294 303 311 320 311 301 78 348 328 317 97 11 308 309 320 287 279 300 37 45 46 44 47 52 57 56 55 55 53 48 41 37 37 33 30 29 27 25 19 19 21 21 20 18 16 27 26 9 126 182 196 189 203 200 210 224 227 237 228 231 231 216 213 217 214 209 203 200 202 201
283 42 134 232 245 245 248 256 262 263 265 271 300 358 313 311 308 305 310 323 301 305 360 37 306 291 264 281 276 281 276 266 273 66 65 56 52 56 50 45 48 48 54 51 47 39 36 33 35 35 31 28 26 20 17 20 19 21 22 20 20 26 30 31 2 181 211 210 233 238 247 258 265 266 259 247 243 239 227 218 212 208 205 204 204 205
201 223 132 195 229 232 243 249 246 231 250 263 41 331 340 307 304 317 316 288 274 286 279 255 217 277 296 283 268 221 250 262 77 78 68 56 58 52 59 58 47 48 49 48 44 42 40 37 35 35 31 30 25 19 18 19 19 20 19 20 23 26 29 32 6 11 353 311 272 268 263 266 271 272 280 289 284 250 240 230 208 207 206 202 207 210
202 174 198 191 198 219 229 236 56 198 226 286 90 14 305 307 295 290 283 284 286 300 293 201 202 259 265 295 149 245 245 276 104 89 81 68 52 46 56 63 65 56 48 45 46 43 37 36 35 33 33 29 27 23 20 19 19 18 20 24 24 25 26 19 19 7 7 355 338 322 301 284 281 281 281 284 279 268 239 224 210 210 210 203 206 213
142 25 202 207 201 234 240 242 202 184 245 91 110 92 188 237 235 257 268 277 283 279 273 237 192 256 289 316 177 189 344 297 106 91 80 77 71 58 49 51 57 58 47 42 45 45 42 36 35 34 35 32 29 25 22 24 24 22 21 24 23 24 24 19 17 12 11 9 355 336 323 311 305 304 299 289 282 277 257 237 220 210 211 210 204 209
266 139 23 250 222 245 335 66 14 352 348 98 279 293 276 240 245 232 239 266 276 255 265 249 197 228 291 345 295 138 20 48 43 92 93 77 75 62 49 54 51 46 46 38 39 41 40 36 35 30 33 29 27 23 21 20 21 23 24 22 27 23 21 18 16 14 12 12 10 0 341 328 315 311 304 298 292 285 277 263 242 224 219 213 208 204
223 159 163 228 242 259 201 124 88 67 54 294 273 285 308 277 219 235 232 218 254 275 19 69 192 215 251 185 109 91 132 93 66 76 98 92 79 69 58 45 44 51 46 40 34 32 30 29 29 29 28 25 22 20 20 19 19 21 22 20 24 24 22 18 15 16 15 12 12 3 351 336 327 320 312 306 301 298 292 283 272 261 236 222 214 205
225 223 216 199 173 218 196 243 162 130 136 204 232 250 262 284 307 270 208 226 234 272 116 91 66 267 237 243 268 317 237 85 74 98 105 100 93 77 68 60 52 42 45 45 40 33 32 33 28 27 26 25 24 22 18 19 18 19 21 21 23 23 19 18 17 17 15 19 15 9 357 351 341 330 319 309 306 305 299 295 288 277 266 246 224 210
258 148 197 188 278 209 196 199 190 216 189 198 209 211 231 262 251 267 274 273 270 250 146 194 104 259 273 274 251 245 295 85 94 91 97 95 87 76 63 58 57 52 45 42 39 35 29 29 30 29 29 27 22 19 20 20 21 19 19 18 19 19 18 19 20 19 17 17 15 10 6 356 351 343 334 325 317 314 308 304 299 293 283 274 259 241
287 268 191 168 218 155 193 215 231 297 162 203 206 194 222 237 264 281 279 276 274 287 314 177 292 227 297 347 72 76 87 90 85 88 84 85 85 77 67 58 51 50 45 41 43 39 32 27 28 29 27 24 21 17 15 14 13 16 18 18 21 20 17 18 19 20 21 18 16 13 9 5 360 352 341 334 329 323 318 311 305 299 295 288 285 277
246 254 281 153 13 158 182 217 286 66 281 173 205 285 266 242 247 257 277 282 292 297 278 191 208 293 265 108 116 102 104 88 90 82 80 79 76 75 68 56 49 42 38 36 37 37 33 32 30 29 27 22 19 19 16 15 12 13 13 13 16 16 14 16 18 22 19 16 13 13 12 12 6 357 351 342 338 329 321 314 308 303 299 296 295 292
255 255 87 110 111 256 107 9 180 360 246 125 128 211 231 28 273 275 262 254 267 265 255 261 263 258 257 256 250 190 91 94 87 85 82 78 78 78 77 71 63 56 51 50 44 36 29 27 26 24 22 21 21 20 21 20 17 18 15 15 17 16 18 16 13 12 11 9 12 15 18 15 10 5 356 346 335 327 322 316 312 306 303 299 294 293
279 279 146 176 231 112 33 360 318 317 298 114 209 217 73 225 352 249 269 267 255 256 262 242 264 273 271 286 72 93 102 102 91 86 90 90 90 89 93 92 91 77 62 51 47 40 33 25 17 18 18 21 21 20 21 22 19 21 24 22 25 22 22 19 15 14 11 4 2 5 11 15 16 11 3 354 341 333 328 326 320 315 309 305 304 298
0 286 267 52 35 109 122 244 254 196 240 256 280 38 278 247 249 213 236 245 246 248 262 236 256 260 265 266 230 143 120 118 105 97 94 89 86 85 77 71 65 64 56 52 46 37 24 19 8 350 353 351 356 3 11 19 20 20 22 20 25 26 23 20 15 9 10 8 5 3 8 11 11 10 7 1 355 346 339 333 327 322 316 309 304 297
213 271 273 128 80 115 164 186 252 186 178 252 2 273 161 294 248 262 254 282 266 267 263 255 235 256 244 306 350 81 101 109 102 89 77 76 71 72 85 78 72 60 49 43 39 25 356 355 321 340 341 338 332 337 350 358 4 17 18 23 26 24 21 20 21 17 11 8 11 10 11 11 12 9 4 359 358 352 348 342 334 327 321 316 313 305
279 249 271 252 93 258 244 187 239 257 241 198 213 237 210 218 32 328 325 236 248 264 262 283 262 255 285 24 78 95 89 89 102 106 106 103 108 105 94 95 94 111 127 178 188 237 294 332 350 347 350 345 330 348 353 359 9 16 17 18 19 20 16 18 14 10 9 7 11 14 13 8 6 4 0 356 357 354 348 347 341 337 329 320 311 308
263 229 260 280 263 250 264 274 360 318 326 325 261 245 254 263 252 250 258 217 226 232 248 245 254 262 47 13 84 90 88 83 71 82 95 101 96 101 101 94 98 81 76 56 3 3 344 345 340 330 331 334 342 1 352 7 14 18 21 17 14 16 16 10 7 9 3 2 3 9 8 5 3 359 354 355 353 357 354 351 348 342 333 326 317 316
311 297 276 268 257 262 275 281 291 170 268 274 290 276 280 288 275 268 276 250 258 238 249 250 273 249 83 110 96 100 90 93 85 88 104 93 83 66 58 45 26 30 357 349 344 323 310 316 315 295 297 344 339 338 336 352 8 7 6 11 10 9 8 7 359 0 356 353 360 4 1 359 360 356 356 358 354 352 349 349 348 346 340 333 324 316
94 263 264 256 265 270 276 276 255 223 252 266 253 246 243 249 258 265 268 313 278 273 263 260 255 256 92 90 100 106 110 110 110 136 134 125 114 98 76 343 344 332 309 321 300 298 312 311 312 336 354 354 358 1 0 1 1 1 2 5 2 4 1 1 355 349 344 348 352 350 359 2 356 354 353 354 349 346 341 339 341 341 341 337 330 328
294 254 263 285 280 278 266 251 216 57 202 258 286 303 315 308 310 305 297 268 265 228 248 268 265 279 86 107 161 131 146 149 149 118 136 143 155 162 176 218 266 287 295 308 318 322 328 314 338 356 355 355 358 360 357 358 1 358 360 0 357 355 354 352 349 350 346 347 349 350 358 354 352 351 350 348 343 343 340 338 335 333 336 336 332 328
262 277 318 273 272 272 270 258 269 274 40 348 253 268 271 281 281 303 273 277 274 11 324 285 289 270 185 194 208 189 175 166 167 166 165 163 166 161 169 191 213 251 303 319 337 335 338 344 349 3 4 359 1 359 355 355 354 353 353 354 352 348 349 347 350 351 346 347 347 342 346 345 344 345 339 333 332 329 330 332 331 329 327 327 327 325
264 251 243 254 260 262 267 289 345 306 286 280 287 286 277 274 284 273 274 270 265 278 273 265 261 278 275 276 273 273 165 182 175 177 179 169 173 173 185 226 231 277 311 325 330 329 331 335 346 353 352 354 353 357 355 354 353 351 352 348 348 347 345 344 342 344 340 337 340 335 339 342 339 336 333 333 332 328 326 330 329 326 326 321 319 320
228 264 249 249 250 259 266 270 276 282 278 277 279 278 280 275 269 265 255 259 288 294 272 251 267 270 276 281 288 293 291 166 170 166 170 178 179 193 199 220 230 247 245 246 261 274 292 307 317 324 329 332 337 337 343 346 344 345 343 342 339 340 339 335 337 331 330 327 326 326 326 333 329 330 329 330 330 329 330 331 330 329 328 323 314 309
272 272 269 271 261 261 263 269 275 276 275 276 270 274 277 275 267 258 257 267 267 254 267 278 281 283 283 285 287 303 106 140 122 142 162 220 196 206 220 232 239 242 245 249 257 256 262 258 266 272 281 288 299 307 316 323 322 326 329 326 331 332 334 334 334 333 330 329 325 323 322 319 318 310 315 323 325 325 328 328 326 324 323 322 317 313
264 257 262 254 261 263 267 270 273 276 277 271 268 268 268 267 266 268 274 270 265 268 269 273 275 275 278 278 287 95 84 111 95 128 195 209 220 217 243 254 255 257 254 255 259 260 263 264 270 271 275 281 286 298 301 306 311 315 318 313 315 322 320 328 325 321 323 322 322 322 322 318 312 308 307 311 307 310 313 317 320 320 319 316 314 315
235 271 97 27 269 259 261 263 268 271 274 273 274 272 267 265 270 278 276 272 275 268 265 267 268 271 276 81 101 88 108 90 105 275 326 306 268 279 296 306 302 289 278 273 268 262 260 265 266 266 269 271 276 276 279 278 280 278 280 284 292 298 307 312 316 314 316 315 313 313 312 311 309 308 303 295 298 300 301 302 305 304 305 309 309 310
255 259 344 284 279 272 261 263 299 318 303 286 280 267 260 262 268 259 259 257 256 261 266 271 267 267 89 86 87 112 69 37 345 333 313 337 341 333 318 310 308 305 298 288 282 278 274 271 271 270 270 274 275 274 272 272 270 268 267 272 275 280 289 293 292 298 297 301 305 306 308 305 304 302 297 294 291 289 290 292 293 293 296 301 300 301
239 247 255 260 254 252 259 72 9 335 305 281 247 248 259 260 254 258 255 255 254 262 266 258 274 45 85 90 72 58 59 338 320 323 329 319 331 325 320 316 313 313 308 304 293 285 285 288 289 292 288 279 279 277 270 263 265 266 271 279 283 291 292 291 295 296 297 297 297 296 296 299 302 302 300 296 291 289 292 290 288 289 289 290 292 293
209 228 238 258 257 258 293 341 134 287 270 253 16 96 228 257 265 266 261 258 259 263 284 354 45 137 154 103 91 343 357 323 323 310 316 307 311 311 307 308 310 313 315 312 309 298 288 292 299 303 305 299 296 298 300 291 283 284 292 300 307 307 305 303 298 294 292 292 290 286 287 290 290 290 292 294 294 294 294 297 295 291 289 288 287 284
230 232 243 247 260 271 246 122 275 236 242 19 97 266 204 251 246 252 266 275 293 323 286 278 253 156 174 126 115 320 322 315 314 314 307 305 295 294 297 303 311 320 324 324 323 321 313 304 302 299 308 326 345 339 318 308 306 313 322 323 318 312 304 298 293 289 282 280 282 284 285 283 282 283 286 287 287 287 289 292 295 292 291 289 286 284
246 247 254 253 255 269 260 247 249 237 29 283 279 261 194 229 246 262 268 264 253 248 254 267 258 197 171 111 348 335 324 312 299 286 283 280 280 279 289 303 320 328 327 329 328 326 325 328 340 358 3 354 337 328 329 322 328 325 318 317 306 301 297 294 291 286 285 284 285 284 283 284 286 285 288 289 287 285 289 292 290 290 291 289 287 284
233 249 249 260 240 249 243 249 249 298 300 284 279 271 216 238 283 270 291 311 89 233 265 242 267 161 85 351 338 332 316 306 290 283 271 267 260 259 277 311 327 327 325 328 329 326 332 359 352 343 339 334 329 332 333 334 331 322 310 304 299 299 298 296 294 292 290 291 292 292 292 289 286 284 286 289 289 286 288 291 290 287 286 284 283 285
235 235 240 249 243 241 253 260 267 264 261 263 90 44 46 52 41 353 340 274 264 224 224 198 214 112 7 332 331 324 321 301 297 296 323 353 350 334 330 311 312 311 318 322 327 329 339 347 346 333 329 326 327 328 326 323 318 308 303 301 302 300 295 295 295 295 298 297 297 297 296 295 296 294 291 289 285 284 286 287 287 284 284 282 283 282
248 245 244 234 253 245 243 246 246 245 256 102 259 83 46 83 12 353 296 286 311 103 74 98 87 64 355 322 321 321 318 300 291 302 321 347 332 319 307 303 307 311 317 332 339 342 345 337 328 321 320 322 323 328 334 332 326 320 314 313 309 306 303 303 302 303 304 303 302 300 299 300 299 297 296 294 292 291 289 287 285 283 282 280 279 276
191 215 204 229 237 238 244 244 246 247 259 80 134 102 101 67 30 359 291 292 94 218 147 133 357 331 320 318 308 300 286 285 289 300 327 316 312 309 305 308 309 316 334 344 350 353 332 319 322 322 326 328 328 338 342 338 331 320 318 315 312 307 304 302 303 305 306 304 301 301 302 302 302 302 303 300 297 296 292 290 286 282 282 280 277 277
170 220 204 220 227 234 237 250 265 262 266 259 264 284 133 105 27 278 253 288 166 191 197 340 287 292 285 285 283 282 274 282 292 300 303 302 298 300 306 308 317 340 335 336 336 342 321 322 322 320 324 328 340 349 344 337 328 318 317 314 308 303 302 305 307 308 307 305 304 305 307 309 308 304 300 296 294 294 291 287 285 284 282 280 278 276
240 193 252 230 228 233 236 247 245 260 253 291 282 252 151 286 258 258 319 92 143 177 203 224 250 265 274 271 272 272 283 285 289 291 288 288 294 301 305 320 331 324 326 330 334 333 325 322 324 321 327 342 352 341 335 333 323 316 314 308 300 305 310 313 312 309 308 306 309 308 304 300 298 295 294 294 294 291 288 286 285 283 283 281 279 277
214 177 219 223 227 228 234 249 257 263 171 186 189 87 218 207 237 305 56 160 153 195 246 261 262 273 270 278 278 284 287 287 289 290 288 287 296 304 316 324 321 321 325 330 332 342 356 332 324 324 326 334 337 333 330 335 318 310 307 298 303 311 309 310 304 301 299 299 299 299 300 300 300 300 301 297 294 293 291 290 287 285 283 280 277 274
247 257 248 249 223 240 227 224 224 248 276 167 163 220 231 231 257 279 285 280 240 289 296 302 290 287 292 285 284 284 288 291 288 284 284 288 296 314 312 312 315 319 320 325 335 352 11 332 324 319 319 327 329 330 329 327 313 308 306 300 309 305 303 301 302 304 302 302 301 300 299 300 299 297 295 294 294 291 286 283 283 282 279 278 277 276
191 225 226 256 231 250 225 258 270 277 269 200 192 234 258 269 277 288 273 277 292 289 291 286 289 291 291 283 277 281 287 284 285 288 290 297 304 305 310 311 318 318 321 327 340 357 2 338 322 318 313 316 324 320 318 318 312 307 300 300 307 306 311 311 311 307 302 301 300 299 295 296 292 293 292 289 286 284 282 281 280 280 276 274 272 271
225 249 223 250 250 255 272 277 285 281 263 239 222 232 256 267 272 272 260 270 270 281 288 288 290 291 287 268 258 269 267 276 282 287 294 299 302 303 305 308 310 318 321 338 338 349 347 329 319 312 308 310 321 316 316 312 304 294 294 306 310 309 309 306 304 300 297 297 294 292 294 293 291 286 282 281 281 279 280 283 285 283 281 279 275 274
240 245 243 240 242 268 256 244 255 259 261 262 265 258 253 255 262 263 263 260 274 281 277 265 269 277 280 263 250 264 271 276 282 286 292 296 298 302 305 305 307 317 331 332 336 349 334 335 316 311 312 307 317 319 309 305 302 295 301 305 306 306 306 302 301 298 296 295 296 294 294 291 289 290 288 284 280 278 280 283 283 283 282 281 280 277
251 236 242 223 236 235 258 262 257 254 263 263 263 268 266 264 258 255 261 267 241 127 238 252 154 245 213 239 243 254 263 273 277 282 290 293 298 302 303 304 312 323 325 332 331 346 331 318 312 310 313 309 312 309 303 299 298 299 299 298 299 301 300 299 298 296 296 297 296 293 292 288 288 288 287 285 281 279 278 274 273 275 275 279 281 283
253 110 237 169 226 235 247 254 261 264 262 263 262 258 257 256 258 264 266 165 162 200 176 181 201 242 229 245 269 270 276 273 277 286 290 295 295 296 304 315 320 321 325 326 330 340 322 316 310 307 306 301 302 302 301 298 296 295 298 304 305 302 301 298 297 296 295 295 294 291 289 288 289 288 286 285 282 274 273 277 277 274 273 267 270 272
247 237 196 191 242 245 240 244 244 252 262 261 253 254 255 250 250 256 150 209 203 221 195 197 199 198 228 281 281 274 271 282 288 293 290 294 297 306 312 318 320 319 318 322 322 316 309 308 308 306 302 296 297 297 296 301 303 302 301 301 302 301 296 297 299 297 297 296 293 292 293 292 290 289 287 285 284 282 277 267 269 270 271 275 270 270
233 236 221 229 230 248 243 241 238 246 257 269 279 285 196 120 169 219 236 239 223 185 168 193 214 213 208 218 216 246 277 284 294 312 304 300 303 314 318 322 319 317 315 319 314 309 311 310 306 296 291 292 298 300 302 299 296 299 301 303 301 297 294 294 296 299 297 295 293 293 293 292 289 287 285 283 282 282 283 285 275 270 273 275 277 277